Nome, AK

7:09 AM AKST on November 23, 2017 (GMT -0900)
Nome

Weather History for PAOM - November, 2013

Change the Weather History Date:

Thursday, November 21, 2013

  Actual Average Record
Temperature  
Mean Temperature 8 °F 15 °F  
Max Temperature 12 °F 21 °F 44 °F (1949)
Min Temperature 4 °F 9 °F -27 °F (1988)
Degree Days  
Heating Degree Days 57 50  
Month to date heating degree days 907 982  
Since 1 July heating degree days 3331 3632  
Cooling Degree Days 0 0  
Month to date cooling degree days 0 0  
Year to date cooling degree days 7 3  
Moisture  
Dew Point -5 °F    
Average Humidity 0    
Maximum Humidity 0    
Minimum Humidity 0    
Precipitation  
Precipitation 0.00 in 0.04 in 0.93 in (2010)
Month to date precipitation 1.44 0.89  
Year to date precipitation 20.08 15.40  
Snow  
Snow 0.00 in 0.40 in 4.00 in (1973)
Month to date snowfall 6.1 8.3  
Since 1 July snowfall 7.7 13.5  
Since 1 September snowfall 7.7 13.5  
Snow Depth 2.00 in    
Sea Level Pressure  
Sea Level Pressure 29.93 in    
Wind  
Wind Speed 12 mph (NE)    
Max Wind Speed 31 mph    
Max Gust Speed 38 mph    
Visibility 10 miles    
Events      
T = Trace of Precipitation, MM = Missing Value Source: NWS Daily Summary

Daily Weather History Graph

Daily Weather History Graph

Search for Another Location

Airport or City:

Trip Planner

Search our weather history database for the weather conditions in past years. The results will help you decide how hot, cold, wet, or windy it might be!

Date:

Astronomy

Nov. 21, 2013 Rise Set
Actual Time 10:55 AM AKST 4:39 PM AKST
Civil Twilight 9:49 AM AKST 5:45 PM AKST
Nautical Twilight 8:46 AM AKST 6:48 PM AKST
Astronomical Twilight 7:48 AM AKST 7:46 PM AKST
Moon 8:47 PM AKST (11/21) 1:54 PM AKST (11/21)
Length of Visible Light 7h 55m
Length of Day
5h 43m
Waning Gibbous, 84% of the Moon is Illuminated
Nov 21
Waning Gibbous
Nov 25
Last Quarter
Dec 2
New
Dec 9
First Quarter
Dec 17
Full

Hourly Weather History & Observations

Time (AKST) Temp. Windchill Dew Point Humidity Pressure Visibility Wind Dir Wind Speed Gust Speed Precip Events Conditions
12:53 AM 5.0 °F -5.6 °F -5.1 °F 63% 30.19 in 10.0 mi NE 5.8 mph - N/A   Clear
1:53 AM 8.1 °F -6.2 °F -5.1 °F 55% 30.19 in 10.0 mi NE 10.4 mph - N/A   Clear
2:53 AM 8.1 °F -4.3 °F -5.1 °F 55% 30.17 in 10.0 mi NE 8.1 mph - N/A   Clear
3:53 AM 8.1 °F - -6.0 °F 53% 30.16 in 10.0 mi Calm Calm - N/A   Clear
4:53 AM 12.0 °F -5.1 °F -5.1 °F 46% 30.13 in 10.0 mi North 17.3 mph 26.5 mph N/A   Clear
5:53 AM 8.1 °F -5.3 °F -5.1 °F 55% 30.11 in 10.0 mi NNE 9.2 mph - N/A   Clear
6:53 AM 8.1 °F -6.2 °F -4.0 °F 58% 30.09 in 10.0 mi North 10.4 mph - N/A   Clear
7:53 AM 9.0 °F -4.2 °F -4.0 °F 56% 30.07 in 10.0 mi North 9.2 mph - N/A   Clear
8:53 AM 10.0 °F -2.9 °F -4.0 °F 53% 30.05 in 10.0 mi NE 9.2 mph - N/A   Clear
9:53 AM 10.0 °F -2.9 °F -4.0 °F 53% 30.02 in 10.0 mi North 9.2 mph - N/A   Partly Cloudy
10:53 AM 8.1 °F - -4.0 °F 58% 30.01 in 10.0 mi Calm Calm - N/A   Partly Cloudy
11:53 AM 10.9 °F -7.0 °F -2.0 °F 56% 29.96 in 10.0 mi NE 18.4 mph 25.3 mph N/A   Partly Cloudy
12:53 PM 10.0 °F -7.1 °F -2.0 °F 58% 29.93 in 10.0 mi NE 16.1 mph 23.0 mph N/A   Partly Cloudy
1:53 PM 12.0 °F -5.6 °F -2.9 °F 51% 29.88 in 10.0 mi NNE 18.4 mph 25.3 mph N/A   Partly Cloudy
2:53 PM 10.0 °F -4.5 °F -2.9 °F 56% 29.86 in 10.0 mi NNE 11.5 mph - N/A   Partly Cloudy
3:53 PM 10.0 °F 0.4 °F -5.1 °F 51% 29.83 in 10.0 mi ENE 5.8 mph - N/A   Partly Cloudy
4:53 PM 7.0 °F -9.8 °F -6.0 °F 55% 29.78 in 10.0 mi NNE 13.8 mph - N/A   Clear
5:53 PM 8.1 °F -11.2 °F -7.1 °F 50% 29.76 in 10.0 mi NE 19.6 mph 25.3 mph N/A   Clear
6:53 PM 8.1 °F -8.4 °F -8.0 °F 48% 29.75 in 10.0 mi NE 13.8 mph - N/A   Clear
7:53 PM 7.0 °F -8.3 °F -7.1 °F 53% 29.71 in 10.0 mi NE 11.5 mph - N/A   Clear
8:53 PM 7.0 °F -9.8 °F -7.1 °F 53% 29.68 in 10.0 mi NE 13.8 mph 23.0 mph N/A   Clear
9:53 PM 8.1 °F -11.2 °F -8.0 °F 48% 29.65 in 10.0 mi NE 19.6 mph 23.0 mph N/A   Clear
10:53 PM 8.1 °F -13.4 °F -6.0 °F 53% 29.60 in 8.0 mi NE 25.3 mph 32.2 mph N/A   Partly Cloudy
11:53 PM 10.0 °F -8.6 °F -7.1 °F 46% 29.58 in 10.0 mi NNE 19.6 mph 24.2 mph N/A   Partly Cloudy